Location: Korczew
(51.3586°N, 19.4491°E)
Time: 16:36:41
(UTC+00:00)

Cosmos 2278 - Pass Details

Date: 19 May 2025
Orbit: 839 x 850 km, 71.1° (Epoch: 21 June)

Event Time Altitude Azimuth Distance (km) Brightness Sun altitude
Rises 21:23:22 0° 330° (NNW) 3,406 8.5 -16.8°
Reaches altitude 10° 21:25:50 10° 333° (NNW) 2,467 7.4 -16.9°
Maximum altitude 21:31:29 71° 58° (ENE) 889 3.8 -17.2°
Enters shadow 21:34:50 25° 137° (SE) 1,627 4.7 -17.3°
